Showing default

BUSANSAT, 68989

Orbit data source: Space-Track

BUSANSAT, 68989 is a South Korean payload satellite in SSO that was launched on Sun, 03 May 2026 UTC via an FALCON 9 launch vehicle from the Air Force Western Test Range (AFWTR). Payload-class satellites include a variety of spacecraft equipped with specific instruments for various scientific and technological missions. These include communications satellites like Starlink; space stations such as the ISS; scientific satellites like the Hubble; Earth observation satellites from companies like Planet Labs, Umbra, and HawkEye 360; GPS; miniature CubeSats for education and research; and military/defense satellites.

Loading next visibility...
Identifier
68989, 2026-100K
Orbit
SSO
Country
Flag of KRKR / SKOR
Related business
None
Manufacturer
Unknown
Mission
Operational Commercial Imaging
Bus & Motor
Unknown
Mass
Unknown
Launch date (UTC)
2026-05-03 (5 months ago)
Launch vehicle
FALCON 9
Launch site
Air Force Western Test Range (AFWTR)
Object type
Payload
Rocket body
Debris
Shape & HBR
Box, 0.3 m
Radar Cross Section
0.165 m², Medium (>0.1 m² and < 1m²)

Expand to show TLE details & history
Last TLE update: 12 hours ago

TLE from 12 hours ago
0 BUSANSAT
1 68989U 26100K   26265.94742482  .00001099  00000-0  11621-3 0  9993
2 68989  97.7254 161.3842 0006317 157.6585 202.4910 14.91158912 21265
Epoch: 2026-09-22T22:44Z
TLE epoch observation values (Epoch: 2026-09-22T22:44:17.504Z)
Latitude
-0°
Longitude
178.50568°
Altitude
601.433 km
Speed
7.557 km/s
True Right ascension
10h 45m 32s
True Declination
0° 00' 00"
Sunlit
Object was in daylight at epoch
Visualization orbit readout
Latitude
Unknown
Longitude
Unknown
Altitude
Unknown
Speed
Unknown
Apparent Right ascension
Unknown
Apparent Declination
Unknown
Sunlit
N/A
Visualization observer readout
Local Sidereal Time
04:08:13
Azimuth
Unknown
Elevation
Unknown
Doppler factor
Unknown
Orbital elements
Apogee altitude
595.742 km
Perigee altitude
586.936 km
Semi-major axis
6,969.476 km
Eccentricity
0.00063
Inclination
97.7254°
RAAN
161.3842°
Arg. of periapsis
157.6585°
True anomaly
202.46333°
Mean anomaly
202.491°
Eccentric anomaly
202.47716°
Mean motion
3.73029 °/min
Orbital period
96.51 mins
BSTAR
0.00011621
Loading maneuver chart data...
Computing Atmospheric mass density...
Loading historical data...
Loading historical data...
Loading historical data...
Loading historical data...
Loading historical data...
Loading historical data...
Loading historical data...

Documentation

Showing up to 5 results
|